Date String (YYYY-MM-DD hh:mm:ss) UTC,Instrument flags,absolute air pressure of the measurement (hPa),sample flow rate (lpm),inlet stack bypass flow (lpm),air temperature of the measurement (°C),ambient temperature measured by the external sensor (°C),aerosol sample conditioner tube jacket temperature (°C),OPC LED temperature (°C),internal box temperature (°C),relative humidity of the measurement (%),span deviation,mass concentration of particles derived from Lorenz-Mie calculation of OPC scattering (μg/m³),mass concentration of particles derived from Lorenz-Mie calculation of OPC scattering (μg/m³),mass concentration of particles derived from Lorenz-Mie calculation of OPC scattering (μg/m³)
DateTimeUTC,F1_M11,P_M11,Q1_M11,Q2_M11,T1_M11,T2_M11,T3_M11,T4_M11,T5_M11,U1_M11,ZSPAN_M11,X0_M11,X2_M11,X1_M11
2024-04-18 08:00:00,SystemResetWarning,0833.1,5.00,000.00,024.1,023.2,000.0,032.9,026.0,018.6,0000.0,0002.33,0001.86,0001.69
2024-04-18 08:01:00,SystemResetWarning,0833.3,4.99,000.00,024.1,023.2,000.0,032.8,026.0,018.7,0000.0,0002.44,0001.91,0001.68
2024-04-18 08:02:00,SystemResetWarning,0832.9,5.00,000.00,024.1,023.2,000.0,032.8,026.0,018.7,0000.0,0002.47,0001.91,0001.67
2024-04-18 08:03:00,SystemResetWarning,0832.9,4.99,000.00,024.1,023.2,000.0,032.8,026.0,018.7,0000.0,0002.35,0001.91,0001.67
2024-04-18 08:04:00,SystemResetWarning,0832.9,5.01,000.00,024.1,023.2,000.0,032.8,026.0,018.7,0000.0,0002.36,0001.91,0001.66
2024-04-18 08:05:00,SystemResetWarning,0832.9,5.00,000.00,024.1,023.2,000.0,032.8,026.0,018.7,0000.0,0002.46,0001.96,0001.67
2024-04-18 08:06:00,SystemResetWarning,0833.4,5.00,000.00,024.1,023.2,000.0,032.8,026.0,018.8,0000.0,0002.54,0002.00,0001.68
2024-04-18 08:07:00,SystemResetWarning,0833.1,5.00,000.00,024.1,023.2,000.0,032.8,026.0,018.8,0000.0,0002.61,0002.03,0001.69
2024-04-18 08:08:00,SystemResetWarning,0832.8,5.00,000.00,024.1,023.2,000.0,032.8,026.0,018.8,0000.0,0002.69,0002.06,0001.70
2024-04-18 08:09:00,SystemResetWarning,0832.8,4.99,000.00,024.0,023.2,000.0,032.8,026.0,018.8,0000.0,0002.81,0002.11,0001.71
2024-04-18 08:10:00,SystemResetWarning,0832.8,4.99,000.00,024.0,023.2,000.0,032.8,026.0,018.8,0000.0,0002.86,0002.14,0001.73
2024-04-18 08:11:00,SystemResetWarning,0832.7,5.00,000.00,024.0,023.2,000.0,032.8,026.0,018.8,0000.0,0002.83,0002.14,0001.75
2024-04-18 08:12:00,SystemResetWarning,0832.7,5.01,000.00,024.0,023.2,000.0,032.8,026.0,018.9,0000.0,0002.63,0002.09,0001.76
2024-04-18 08:13:00,SystemResetWarning,0832.7,5.01,000.00,024.0,023.1,000.0,032.8,026.0,018.9,0000.0,0002.53,0002.08,0001.78
2024-04-18 08:14:00,SystemResetWarning,0832.7,5.00,000.00,024.0,023.2,000.0,032.8,026.0,018.9,0000.0,0002.54,0002.10,0001.79
2024-04-18 08:15:00,SystemResetWarning,0832.8,5.00,000.00,024.0,023.2,000.0,032.8,026.0,019.0,0000.0,0002.56,0002.13,0001.79
2024-04-18 08:16:00,SystemResetWarning,0832.9,5.00,000.00,024.0,023.1,000.0,032.7,026.0,019.0,0000.0,0002.67,0002.19,0001.80
2024-04-18 08:17:00,SystemResetWarning,0833.0,4.99,000.00,024.0,023.1,000.0,032.7,025.9,019.0,0000.0,0002.65,0002.18,0001.80
2024-04-18 08:18:00,SystemResetWarning,0832.8,4.99,000.00,024.0,023.1,000.0,032.7,025.9,019.0,0000.0,0002.66,0002.20,0001.81
2024-04-18 08:19:00,SystemResetWarning,0832.7,5.00,000.00,024.0,023.2,000.0,032.7,025.9,019.0,0000.0,0002.61,0002.19,0001.82
2024-04-18 08:20:00,SystemResetWarning,0832.7,5.00,000.00,024.0,023.1,000.0,032.7,025.9,019.0,0000.0,0002.60,0002.20,0001.85
2024-04-18 08:21:00,SystemResetWarning,0832.9,5.00,000.00,024.0,023.1,000.0,032.7,025.9,019.0,0000.0,0002.64,0002.23,0001.87
2024-04-18 08:22:00,SystemResetWarning,0832.7,5.00,000.00,024.0,023.1,000.0,032.7,025.9,019.0,0000.0,0002.64,0002.22,0001.89
2024-04-18 08:23:00,SystemResetWarning,0832.8,5.00,000.00,024.0,023.1,000.0,032.7,025.9,019.0,0000.0,0002.73,0002.27,0001.93
2024-04-18 08:24:00,SystemResetWarning,0832.7,5.00,000.00,023.9,023.1,000.0,032.7,025.9,019.0,0000.0,0002.85,0002.34,0001.98
2024-04-18 08:25:00,SystemResetWarning,0832.7,5.01,000.00,023.9,023.1,000.0,032.7,025.9,019.0,0000.0,0003.00,0002.42,0002.03
2024-04-18 08:26:00,SystemResetWarning,0832.7,5.01,000.00,023.9,023.0,000.0,032.7,025.9,019.0,0000.0,0003.00,0002.45,0002.08
2024-04-18 08:27:00,SystemResetWarning,0832.7,4.99,000.00,023.9,023.0,000.0,032.7,025.9,019.0,0000.0,0002.94,0002.46,0002.13
2024-04-18 08:28:00,SystemResetWarning,0832.8,5.00,000.00,023.9,023.0,000.0,032.7,025.9,019.0,0000.0,0002.96,0002.51,0002.22
2024-04-18 08:29:00,SystemResetWarning,0832.8,4.99,000.00,023.9,023.0,000.0,032.6,025.8,019.0,0000.0,0002.98,0002.58,0002.29
2024-04-18 08:30:00,SystemResetWarning,0832.8,4.99,000.00,023.9,023.0,000.0,032.6,025.8,019.1,0000.0,0003.10,0002.67,0002.37
2024-04-18 08:31:00,SystemResetWarning,0832.8,5.02,000.00,023.9,023.0,000.0,032.6,025.8,019.1,0000.0,0003.23,0002.75,0002.43
2024-04-18 08:32:00,SystemResetWarning,0832.7,5.01,000.00,023.9,023.0,000.0,032.6,025.7,019.1,0000.0,0003.30,0002.83,0002.49
2024-04-18 08:33:00,SystemResetWarning,0832.7,5.00,000.00,023.9,023.0,000.0,032.6,025.7,019.1,0000.0,0003.27,0002.89,0002.54
2024-04-18 08:34:00,SystemResetWarning,0832.8,5.00,000.00,023.9,023.0,000.0,032.6,025.7,019.1,0000.0,0003.24,0002.91,0002.58
2024-04-18 08:35:00,SystemResetWarning,0832.8,5.00,000.00,023.8,022.9,000.0,032.6,025.7,019.1,0000.0,0003.17,0002.93,0002.62
2024-04-18 08:36:00,SystemResetWarning,0832.8,4.99,000.00,023.8,022.9,000.0,032.6,025.7,019.1,0000.0,0003.01,0002.90,0002.64
2024-04-18 08:37:00,SystemResetWarning,0832.8,4.99,000.00,023.8,022.9,000.0,032.6,025.7,019.1,0000.0,0002.94,0002.88,0002.65
2024-04-18 08:38:00,SystemResetWarning,0832.8,5.00,000.00,023.8,022.9,000.0,032.6,025.7,019.1,0000.0,0002.88,0002.86,0002.64
2024-04-18 08:39:00,SystemResetWarning,0832.7,5.00,000.00,023.8,022.9,000.0,032.6,025.7,019.0,0000.0,0002.81,0002.82,0002.63
2024-04-18 08:40:00,SystemResetWarning,0832.7,5.01,000.00,023.8,022.9,000.0,032.6,025.7,019.0,0000.0,0002.77,0002.79,0002.61
2024-04-18 08:41:00,SystemResetWarning,0832.7,5.00,000.00,023.8,022.9,000.0,032.5,025.7,019.0,0000.0,0002.67,0002.74,0002.59
2024-04-18 08:42:00,SystemResetWarning,0832.7,4.99,000.00,023.8,022.9,000.0,032.5,025.7,019.0,0000.0,0002.49,0002.69,0002.58
2024-04-18 08:43:00,SystemResetWarning,0832.7,5.00,000.00,023.8,022.9,000.0,032.5,025.7,019.0,0000.0,0002.35,0002.60,0002.54
2024-04-18 08:44:00,SystemResetWarning,0832.7,5.00,000.00,023.8,022.9,000.0,032.5,025.6,019.0,0000.0,0002.27,0002.55,0002.50
2024-04-18 08:45:00,SystemResetWarning,0832.7,5.00,000.00,023.8,022.9,000.0,032.5,025.6,019.0,0000.0,0002.22,0002.51,0002.47
2024-04-18 08:46:00,SystemResetWarning,0832.7,5.00,000.00,023.8,022.9,000.0,032.5,025.6,019.0,0000.0,0002.19,0002.47,0002.42
2024-04-18 08:47:00,SystemResetWarning,0832.7,5.00,000.00,023.7,022.9,000.0,032.5,025.6,018.9,0000.0,0002.20,0002.46,0002.39
2024-04-18 08:48:00,SystemResetWarning,0832.8,5.01,000.00,023.7,022.8,000.0,032.5,025.6,018.9,0000.0,0002.21,0002.46,0002.39
2024-04-18 08:49:00,SystemResetWarning,0833.1,5.00,000.00,023.7,022.8,000.0,032.5,025.6,018.9,0000.0,0002.32,0002.47,0002.40
2024-04-18 08:50:00,SystemResetWarning,0833.0,5.00,000.00,023.7,022.8,000.0,032.5,025.6,018.9,0000.0,0002.30,0002.46,0002.39
2024-04-18 08:51:00,SystemResetWarning,0832.8,5.00,000.00,023.7,022.8,000.0,032.5,025.6,019.0,0000.0,0002.33,0002.48,0002.39
2024-04-18 08:52:00,SystemResetWarning,0832.8,5.00,000.00,023.7,022.8,000.0,032.4,025.6,019.0,0000.0,0002.32,0002.48,0002.39
2024-04-18 08:53:00,SystemResetWarning,0832.7,5.00,000.00,023.7,022.8,000.0,032.4,025.6,018.9,0000.0,0002.31,0002.46,0002.39
2024-04-18 08:54:00,SystemResetWarning,0832.7,5.00,000.00,023.7,022.8,000.0,032.4,025.6,019.0,0000.0,0002.35,0002.47,0002.40
2024-04-18 08:55:00,SystemResetWarning,0832.8,5.00,000.00,023.7,022.8,000.0,032.4,025.6,019.0,0000.0,0002.47,0002.50,0002.42
2024-04-18 08:56:00,SystemResetWarning,0832.7,4.99,000.00,023.7,022.8,000.0,032.4,025.5,018.9,0000.0,0002.79,0002.55,0002.44
2024-04-18 08:57:00,SystemResetWarning,0832.7,5.00,000.00,023.7,022.7,000.0,032.4,025.5,018.9,0000.0,0003.86,0002.55,0002.45
2024-04-18 08:58:00,SystemResetWarning,0832.7,5.00,000.00,023.6,022.7,000.0,032.4,025.5,018.9,0000.0,0003.84,0002.54,0002.44
2024-04-18 08:59:00,SystemResetWarning,0832.7,5.00,000.00,023.6,022.7,000.0,032.4,025.5,019.0,0000.0,0003.83,0002.55,0002.46
